Chamberlain, SD

3:49 AM CST on February 24, 2017 (GMT -0600)
Chamberlain

Weather History for K9V9 - March, 2013

Change the Weather History Date:

Sunday, March 31, 2013

  Actual Average Record
Temperature  
Mean Temperature 34 °F -  
Max Temperature 45 °F 48 °F 82 °F (2012)
Min Temperature 24 °F 28 °F 19 °F (2014)
Degree Days  
Heating Degree Days 30    
Moisture  
Dew Point 25 °F    
Average Humidity 69    
Maximum Humidity 85    
Minimum Humidity 35    
Precipitation  
Precipitation 0.06 in - - ()
Sea Level Pressure  
Sea Level Pressure 30.11 in    
Wind  
Wind Speed 10 mph (North)    
Max Wind Speed 18 mph    
Max Gust Speed 23 mph    
Averages and records for this station are not official NWS values.
T = Trace of Precipitation, MM = Missing Value Source: NWS Daily Summary

Daily Weather History Graph

Daily Weather History Graph

Search for Another Location

Airport or City:

Trip Planner

Search our weather history database for the weather conditions in past years. The results will help you decide how hot, cold, wet, or windy it might be!

Date:

Astronomy

Mar. 31, 2013 Rise Set
Actual Time 7:20 AM CDT 8:03 PM CDT
Civil Twilight 6:51 AM CDT 8:32 PM CDT
Nautical Twilight 6:16 AM CDT 9:06 PM CDT
Astronomical Twilight 5:40 AM CDT 9:42 PM CDT
Moon 12:18 AM CDT (3/31) 10:00 AM CDT (3/31)
Length of Visible Light 13h 41m
Length of Day
12h 43m
Waning Gibbous, 77% of the Moon is Illuminated
Mar 31
Waning Gibbous
Apr 2
Last Quarter
Apr 10
New
Apr 18
First Quarter
Apr 25
Full

Hourly Weather History & Observations

Time (CDT) Temp. Windchill Dew Point Humidity Pressure Visibility Wind Dir Wind Speed Gust Speed Precip Events Conditions
12:52 AM 43.0 °F 37.2 °F 30.0 °F 60% 30.02 in - WNW 10.4 mph - N/A   Unknown
1:52 AM 39.9 °F 32.5 °F 33.1 °F 77% 30.05 in - North 12.7 mph - N/A   Unknown
2:52 AM 37.9 °F 35.5 °F 30.9 °F 76% 30.05 in - NW 3.5 mph - N/A   Unknown
3:52 AM 36.0 °F - 28.9 °F 76% 30.04 in - Calm Calm - N/A   Unknown
4:52 AM 33.1 °F 24.9 °F 28.0 °F 82% 30.03 in - West 10.4 mph - N/A   Unknown
5:52 AM 33.1 °F 26.9 °F 28.0 °F 82% 30.01 in - NW 6.9 mph - N/A   Unknown
6:52 AM 32.0 °F 23.6 °F 27.0 °F 82% 30.04 in - WNW 10.4 mph - N/A   Unknown
7:52 AM 32.0 °F 26.4 °F 26.1 °F 79% 30.05 in - WNW 5.8 mph - N/A   Unknown
8:52 AM 37.0 °F 29.8 °F 27.0 °F 67% 30.06 in - NNW 10.4 mph - N/A   Unknown
9:52 AM 37.9 °F 28.2 °F 23.0 °F 55% 30.07 in - North 18.4 mph 23.0 mph N/A   Unknown
10:52 AM 39.9 °F 32.1 °F 21.0 °F 47% 30.07 in - North 13.8 mph - N/A   Unknown
11:52 AM 42.1 °F 35.2 °F 16.0 °F 35% 30.07 in - North 12.7 mph 20.7 mph N/A   Unknown
12:52 PM 43.0 °F 36.8 °F 17.1 °F 35% 30.07 in - North 11.5 mph 21.9 mph N/A   Unknown
1:52 PM 43.0 °F 36.4 °F 18.0 °F 37% 30.06 in - NNE 12.7 mph 20.7 mph N/A   Unknown
2:52 PM 41.0 °F 32.8 °F 23.0 °F 49% 30.08 in - NNE 16.1 mph - N/A   Unknown
3:52 PM 34.0 °F 24.2 °F 30.0 °F 85% 30.12 in - North 15.0 mph - 0.01 in   Unknown
4:52 PM 34.0 °F 25.0 °F 30.0 °F 85% 30.12 in - NNE 12.7 mph - 0.02 in   Unknown
5:52 PM 33.1 °F 24.4 °F 28.9 °F 85% 30.15 in - North 11.5 mph - N/A   Unknown
6:52 PM 32.0 °F 22.1 °F 28.0 °F 85% 30.18 in - NNE 13.8 mph - 0.02 in   Unknown
7:52 PM 30.0 °F 19.1 °F 24.1 °F 79% 30.21 in - NNE 15.0 mph - 0.01 in   Unknown
8:52 PM 28.9 °F 20.4 °F 21.0 °F 72% 30.24 in - NNE 9.2 mph - N/A   Unknown
9:52 PM 26.1 °F 21.9 °F 19.9 °F 78% 30.26 in - NNE 3.5 mph - N/A   Unknown
10:52 PM 26.1 °F 20.5 °F 17.1 °F 69% 30.28 in - North 4.6 mph - N/A   Unknown
11:52 PM 24.1 °F 19.7 °F 15.1 °F 69% 30.28 in - NNE 3.5 mph - N/A   Unknown